Home > Weather > Qaanaaq > Past weeks

Flag for Greenland Weather for the Past 2 Weeks in Qaanaaq, Greenland

Now
18 °F

Overcast.


Feels Like: 11 °F
Forecast: 5 / 22 °F
Wind: 5 mph from West

Location: Thule A. B.

Current Time: May 1, 2016 at 12:45:31 AM

Latest Report: Apr 30, 2016 at 11:58 PM


Visibility: N/A

Pressure: 29.88 "Hg

Humidity: 79%

Dew Point: 12 °F

Location of QaanaaqLocation

Historic Weather in Qaanaaq — Graph

°F

Qaanaaq Temperature Yesterday

Maximum temperature yesterday: 21 °F (at 8:58 AM)
Minimum temperature yesterday: 18 °F (at 4:58 PM)
Average temperature yesterday: 20 °F

High & Low Weather Summary for the Past Weeks

 TemperatureHumidityPressure
High48 °F (Apr 23, 2:58 PM)93% (Apr 25, 9:58 PM)30.54 "Hg (Apr 25, 9:58 PM)
Low-5 °F (Apr 20, 4:58 AM)17% (Apr 23, 2:58 PM)29.65 "Hg (Apr 22, 1:58 PM)
Average15 °F74%30.08 "Hg
* Reported Apr 15 10:58 PM — Apr 30 10:58 PM, Qaanaaq, Weather by CustomWeather, © 2016

Note: Actual official high and low records may vary slightly from our data, if they occured in-between our weather recording intervals... More about our weather records

Advertising

Qaanaaq Weather History for the Previous 24 Hours

Scroll right to see more
 ConditionsComfort  
Time TempWeatherWind HumidityBarometerVisibility
10:58 PM
Sat, Apr 30
18 °FOvercast.5 mph79%29.88 "HgN/A
9:58 PM18 °FMostly cloudy.No wind79%29.88 "HgN/A
8:58 PM18 °FLow clouds.No wind79%29.88 "HgN/A
8:02 PM19 °FMostly cloudy.No wind73%29.92 "HgN/A
7:01 PM19 °FMostly cloudy.No wind73%29.92 "HgN/A
6:58 PM19 °FMostly cloudy.1 mph73%29.88 "HgN/A
5:58 PM19 °FOvercast.6 mph73%29.87 "HgN/A
4:58 PM18 °FMore clouds than sun.6 mph79%29.87 "HgN/A
3:59 PM19 °FLight snow. Low clouds.6 mph79%29.91 "HgN/A
3:58 PM19 °FLow clouds.6 mph79%29.87 "HgN/A
2:58 PM21 °FLight snow. Mostly cloudy.8 mph74%29.87 "Hg6 mi
2:04 PM21 °FMostly cloudy.3 mph74%29.92 "HgN/A
1:58 PM21 °FMostly cloudy.3 mph74%29.88 "HgN/A
1:02 PM21 °FMostly cloudy.3 mph80%29.92 "HgN/A
12:58 PM21 °FMore clouds than sun.2 mph80%29.88 "Hg6 mi
11:58 AM21 °FLight snow. Overcast.2 mph80%29.88 "Hg4 mi
11:00 AM21 °FLight snow. More clouds than sun.No wind80%29.92 "Hg3 mi
10:58 AM21 °FLight snow. Mostly cloudy.No wind80%29.88 "Hg4 mi
9:58 AM19 °FLight snow. Mostly cloudy.6 mph86%29.88 "Hg5 mi
8:58 AM21 °FLight snow. Mostly cloudy.2 mph74%29.88 "HgN/A
7:58 AM19 °FOvercast.5 mph79%29.88 "HgN/A
6:58 AM19 °FOvercast.No wind79%29.87 "HgN/A
5:58 AM19 °FOvercast.2 mph79%29.87 "HgN/A
4:58 AM19 °FOvercast.5 mph79%29.86 "HgN/A
3:58 AM19 °FOvercast.No wind79%29.86 "HgN/A
2:58 AM19 °FOvercast.5 mph79%29.85 "HgN/A
1:58 AM20 °FOvercast.5 mph78%29.85 "HgN/A
12:58 AM19 °FOvercast.7 mph86%29.89 "HgN/A
Weather by CustomWeather, © 2016

See weather overviewHow to use our weather pages